Regional Weather Roundup
Issued by NWS Goodland, KS

Home | Current Version | Previous Version | Text Only | Print | Product List | Glossary On
Versions: 1 2 3 4 5 6 7 8 9 10 11 12 13 14 15 16 17 18 19 20 21 22 23 24 25 26 27 28 29 30 31 32 33 34 35 36 37 38 39 40 41 42 43 44 45 46 47 48 49 50
000
ASUS43 KGLD 091808
RWRGLD

GOODLAND FORECAST AREA HOURLY WEATHER ROUNDUP
NATIONAL WEATHER SERVICE GOODLAND KS
1100 AM MST TUE FEB 09 2016

...OFFICIAL OBSERVATIONS...

CITY           SKY/WX    TMP DP  RH WIND       PRES   REMARKS
GOODLAND KS    SUNNY     41  27  57 N9        30.29S
HILL CITY KS   CLOUDY    37  20  50 N10       30.33R
IMPERIAL NEB   CLOUDY    38  26  62 NE3       30.28R
MCCOOK NEB     CLOUDY    34  21  59 W6        30.31R
AKRON CO       SUNNY     42  28  57 NW21      30.29R
BURLINGTON CO  SUNNY     41  26  55 NW13      30.30R
LIMON CO       SUNNY     36  23  59 W10       30.34R
$$

...UNOFFICIAL OBSERVATIONS...

CITY           SKY/WX    TMP DP  RH WIND       PRES   REMARKS
COLBY KS       PTSUNNY   37  25  60 NW6       30.31S
GOVE KS          N/A     39  32  76 MISG        N/A
LENORA KS        N/A     34  32  92 MISG        N/A
NORTON KS      CLOUDY    34  18  51 N7        30.31S
SHARON SPRINGS   N/A     43  31  63 N8          N/A
KIT CARSON CO    N/A     48  28  46 MISG        N/A
YUMA CO          N/A     41  32  69 NW16        N/A
$$



USA.gov is the U.S. government's official web portal to all federal, state and local government web resources and services.